GW1754 Weather Reports


time (UTC)temp
C
wind
direction
speed
KPH
gust
KPH
rain 1hr
cm
rain 24hr
cm
rain mn
cm
humidity
%
barometer
mb
20260506051001 8 359 3.2 4.8 0.00 0.00 0.00 93 1014.2
20260506045001 8 352 3.2 4.8 0.00 0.00 0.00 94 1014.2
20260506044001 9 11 4.8 8.0 0.00 0.00 0.00 93 1014.3
20260506043000 9 3 3.2 4.8 0.00 0.00 0.00 93 1014.3
20260506042001 9 38 3.2 6.4 0.00 0.00 0.00 93 1014.3
20260506041000 9 17 1.6 4.8 0.00 0.00 0.00 93 1014.4
20260506040000 9 313 3.2 4.8 0.00 0.00 0.00 93 1014.5
20260506035000 8 324 3.2 8.0 0.00 0.00 0.00 93 1014.5
20260506034000 8 318 3.2 6.4 0.00 0.00 0.00 93 1014.5
20260506033000 8 343 3.2 4.8 0.00 0.00 0.00 92 1014.6
20260506032000 9 16 3.2 6.4 0.00 0.00 0.00 92 1014.7
20260506031000 9 48 1.6 3.2 0.00 0.00 0.00 92 1014.7
20260506030000 9 322 1.6 4.8 0.00 0.00 0.00 92 1014.7
20260506025000 9 314 1.6 3.2 0.00 0.00 0.00 92 1014.7
20260506024000 9 322 3.2 6.4 0.00 0.00 0.00 91 1014.7
20260506023000 9 293 4.8 8.0 0.00 0.00 0.00 91 1014.7
20260506022000 9 295 4.8 6.4 0.00 0.00 0.00 91 1014.8
20260506021000 9 296 4.8 6.4 0.00 0.00 0.00 91 1014.8
20260506020000 9 289 6.4 8.0 0.00 0.00 0.00 91 1014.8
20260506015000 9 292 4.8 8.0 0.00 0.00 0.00 90 1014.9
20260506014000 9 296 6.4 9.7 0.00 0.00 0.00 90 1014.9
20260506013000 9 298 6.4 8.0 0.00 0.00 0.00 90 1015.0
20260506012000 9 295 4.8 8.0 0.00 0.00 0.00 90 1015.1
20260506011004 9 294 6.4 8.0 0.00 0.00 0.00 89 1015.1
20260506010004 9 295 6.4 8.0 0.00 0.00 0.00 89 1015.2
20260506005003 9 294 6.4 8.0 0.00 0.00 0.00 88 1015.2
20260506004003 9 299 4.8 6.4 0.00 0.00 0.00 88 1015.2
20260506003003 9 293 6.4 8.0 0.00 0.00 0.00 87 1015.2
20260506002004 9 288 4.8 8.0 0.00 0.00 0.00 87 1015.2
20260506000952 10 288 6.4 8.0 0.00 0.00 0.00 86 1015.2
20260505235952 10 291 4.8 6.4 0.00 0.00 0.00 85 1015.3
20260505234952 10 284 3.2 4.8 0.00 0.00 0.00 84 1015.3
20260505233952 10 291 3.2 3.2 0.00 0.00 0.00 82 1015.3
20260505232952 10 286 1.6 3.2 0.00 0.00 0.00 80 1015.3
20260505231952 10 323 1.6 1.6 0.00 0.00 0.00 78 1015.4
20260505230952 10 152 1.6 1.6 0.00 0.00 0.00 79 1015.5
20260505225952 10 211 0.0 1.6 0.00 0.00 0.00 79 1015.6
20260505224952 10 67 1.6 3.2 0.00 0.00 0.00 79 1015.6
20260505223952 10 47 1.6 3.2 0.00 0.00 0.00 79 1015.7
20260505222952 10 50 3.2 4.8 0.00 0.00 0.00 79 1015.8
20260505221952 10 68 3.2 8.0 0.00 0.00 0.00 79 1015.8
20260505220952 10 90 3.2 6.4 0.00 0.00 0.00 80 1015.9
20260505215952 10 58 4.8 8.0 0.00 0.00 0.00 82 1015.9
20260505214952 10 58 4.8 9.7 0.00 0.00 0.00 82 1015.9
20260505213952 10 71 4.8 9.7 0.00 0.00 0.00 83 1015.8
20260505212952 10 93 4.8 9.7 0.00 0.00 0.00 84 1015.9
20260505211952 10 134 3.2 6.4 0.00 0.00 0.00 84 1015.9
20260505210951 10 136 4.8 8.0 0.00 0.00 0.00 84 1015.9
20260505205951 10 134 4.8 9.7 0.00 0.00 0.00 86 1015.9
20260505204951 10 138 4.8 8.0 0.00 0.00 0.00 87 1015.9
20260505203951 10 131 4.8 8.0 0.00 0.00 0.00 86 1015.9
20260505202951 10 139 4.8 8.0 0.00 0.00 0.00 84 1015.9
20260505201951 10 110 3.2 8.0 0.00 0.00 0.00 83 1015.9
20260505200951 10 115 3.2 8.0 0.00 0.00 0.00 82 1015.8
20260505195951 10 110 3.2 9.7 0.00 0.00 0.00 83 1015.8
20260505194951 10 126 4.8 6.4 0.00 0.00 0.00 83 1015.7
20260505193951 10 135 4.8 8.0 0.00 0.00 0.00 83 1015.6
20260505192951 10 128 6.4 11.3 0.00 0.00 0.00 82 1015.6
20260505191951 10 133 6.4 9.7 0.00 0.00 0.00 81 1015.7
20260505190951 10 133 6.4 11.3 0.00 0.00 0.00 80 1015.6
20260505185951 10 127 6.4 14.5 0.00 0.00 0.00 82 1015.5
20260505184951 10 140 8.0 12.9 0.00 0.00 0.00 83 1015.4
20260505183951 10 139 8.0 11.3 0.00 0.00 0.00 83 1015.4
20260505182951 10 129 6.4 14.5 0.00 0.00 0.00 83 1015.4
20260505181951 10 131 6.4 11.3 0.00 0.00 0.00 84 1015.5
20260505180951 10 131 4.8 12.9 0.00 0.00 0.00 87 1015.4
20260505175951 10 102 4.8 11.3 0.00 0.00 0.00 89 1015.6
20260505174951 11 119 4.8 12.9 0.00 0.00 0.00 90 1015.6
20260505173951 11 81 6.4 19.3 0.00 0.00 0.00 87 1015.6
20260505172951 12 86 6.4 14.5 0.00 0.00 0.00 79 1015.5
20260505171950 12 12 4.8 9.7 0.00 0.00 0.00 66 1015.5
20260505170950 12 353 6.4 14.5 0.00 0.00 0.00 64 1015.5
20260505165950 12 307 9.7 16.1 0.00 0.00 0.00 64 1015.5
20260505164951 13 306 8.0 14.5 0.00 0.00 0.00 64 1015.5
20260505163950 13 302 8.0 16.1 0.00 0.00 0.00 65 1015.4
20260505162950 13 289 9.7 16.1 0.00 0.00 0.00 64 1015.5
20260505161950 13 296 9.7 16.1 0.00 0.00 0.00 64 1015.4
20260505160950 13 290 9.7 17.7 0.00 0.00 0.00 63 1015.4
20260505152954 15 302 6.4 11.3 0.00 0.00 0.00 54 1015.6
20260505151954 15 356 4.8 11.3 0.00 0.00 0.00 57 1015.8
20260505150954 14 299 9.7 17.7 0.00 0.00 0.00 57 1015.7
20260505124953 13 291 11.3 22.5 0.00 0.00 0.00 60 1016.0
20260505123953 14 295 11.3 19.3 0.00 0.00 0.00 59 1016.1
20260505122953 14 332 4.8 14.5 0.00 0.00 0.00 56 1016.2
20260505121953 15 14 8.0 14.5 0.00 0.00 0.00 53 1016.1
20260505120953 14 16 11.3 17.7 0.00 0.00 0.00 53 1016.1
20260505115953 14 12 11.3 20.9 0.00 0.00 0.00 52 1016.1
20260505114953 15 28 9.7 19.3 0.00 0.00 0.00 49 1016.2
20260505113953 15 2 8.0 16.1 0.00 0.00 0.00 50 1016.1
20260505112953 16 335 11.3 27.4 0.00 0.00 0.00 46 1016.1
20260505111953 16 6 11.3 22.5 0.00 0.00 0.00 46 1016.3
20260505110953 16 322 8.0 19.3 0.00 0.00 0.00 49 1016.3
20260505101953 15 338 9.7 25.7 0.00 0.00 0.00 53 1016.4
20260505100953 15 6 12.9 25.7 0.00 0.00 0.00 54 1016.4
20260505095953 14 346 9.7 19.3 0.00 0.00 0.00 56 1016.5
20260505094953 13 331 8.0 19.3 0.00 0.00 0.00 61 1016.4
20260505093953 13 339 8.0 17.7 0.00 0.00 0.00 65 1016.5
20260505092952 13 1 11.3 19.3 0.00 0.00 0.00 64 1016.5
20260505091953 12 328 6.4 17.7 0.00 0.00 0.00 68 1016.5
20260505090952 12 10 8.0 17.7 0.00 0.00 0.00 68 1016.5
20260505085953 12 354 9.7 19.3 0.00 0.00 0.00 69 1016.4
20260505084952 12 358 11.3 24.1 0.00 0.00 0.00 71 1016.4
20260505083952 11 10 11.3 24.1 0.00 0.00 0.00 73 1016.5
20260505082952 11 8 8.0 17.7 0.00 0.00 0.00 75 1016.5
20260505081952 11 2 8.0 14.5 0.00 0.00 0.00 76 1016.5
20260505080952 11 8 9.7 19.3 0.00 0.00 0.00 77 1016.5
20260505075952 10 4 8.0 16.1 0.00 0.00 0.00 79 1016.4
20260505074952 10 2 9.7 20.9 0.00 0.00 0.00 80 1016.4
20260505073952 10 359 8.0 17.7 0.00 0.00 0.00 81 1016.4
20260505072952 10 337 8.0 19.3 0.00 0.00 0.00 82 1016.3
20260505071952 10 338 8.0 17.7 0.00 0.00 0.00 82 1016.4
20260505070952 9 318 8.0 16.1 0.00 0.00 0.00 84 1016.4
20260505065952 9 308 9.7 19.3 0.00 0.00 0.00 85 1016.4
20260505064952 8 311 11.3 17.7 0.00 0.00 0.00 85 1016.2
20260505063952 8 309 11.3 17.7 0.00 0.00 0.00 86 1016.3
20260505062952 8 315 6.4 12.9 0.00 0.00 0.00 87 1016.3
20260505061952 8 305 11.3 19.3 0.00 0.00 0.00 88 1016.3
20260505060952 8 311 11.3 19.3 0.00 0.00 0.00 88 1016.2
20260505055952 8 311 9.7 19.3 0.00 0.00 0.00 88 1016.2
20260505054951 8 304 11.3 17.7 0.00 0.00 0.00 87 1016.2
20260505053951 8 311 9.7 16.1 0.00 0.00 0.00 86 1016.2
20260505052951 8 321 6.4 16.1 0.00 0.00 0.00 85 1016.2